Cloquet, Minnesota
Current Conditions -  °F | °C
As of 1:56 AM on Friday 19 Dec 2014 (Local Time) from KCOQ Reporting Station
Overcast Overcast  
Wind Chill: 11°   Ceiling: 400
Heat Index: 19°   Visibility: 10mi
Dew Point: 18°   Wind: 6mph
Humidity: 93%   Direction: 210°SSW
Pressure: 30.23"   Gusts: NA
Location:  46.71°N, 92.48°W
Report Text: KCOQ 190756Z AUTO 21005KT 10SM OVC004 M07/M08 A3023 RMK AO2
Loading
Personal Weather Stations






























Interactive Weather Map New forecast layout! Learn more

10-Day Weather Forecast

Advertisements
Track Severe Weather on mobile